TimeCDT,TemperatureF,Dew PointF,Humidity,Sea Level PressureIn,VisibilityMPH,Wind Direction,Wind SpeedMPH,Gust SpeedMPH,PrecipitationIn,Events,Conditions,WindDirDegrees,DateUTC
12:15 AM,68.4,66.9,95,29.97,7.0,SE,3.5,-,0.27,Rain,Light Rain,130,2013-07-30 05:15:00
12:35 AM,70.7,68.4,92,30.00,10.0,SSE,5.8,-,0.27,Rain-Thunderstorm,Light Thunderstorms and Rain,150,2013-07-30 05:35:00
12:55 AM,72.1,69.3,91,30.00,10.0,Calm,Calm,-,0.27,Thunderstorm,Unknown,0,2013-07-30 05:55:00
1:15 AM,71.6,69.4,93,30.02,10.0,SW,5.8,-,N/A,Rain,Light Rain,220,2013-07-30 06:15:00
1:35 AM,73.0,70.2,91,29.99,10.0,South,11.5,-,N/A,Thunderstorm,Unknown,190,2013-07-30 06:35:00
1:55 AM,72.9,68.0,85,29.98,10.0,SSE,6.9,-,N/A,,Clear,150,2013-07-30 06:55:00
2:15 AM,73.8,67.6,81,29.98,10.0,SE,10.4,-,N/A,,Clear,140,2013-07-30 07:15:00
2:35 AM,75.2,66.0,73,29.98,10.0,South,6.9,-,N/A,,Clear,180,2013-07-30 07:35:00
2:55 AM,73.8,68.0,82,29.99,10.0,Calm,Calm,-,N/A,,Clear,0,2013-07-30 07:55:00
3:15 AM,73.6,69.1,86,30.00,10.0,Calm,Calm,-,N/A,,Clear,0,2013-07-30 08:15:00
3:35 AM,73.4,69.1,86,30.03,10.0,West,6.9,23.0,N/A,,Clear,280,2013-07-30 08:35:00
3:55 AM,75.4,68.5,79,30.05,10.0,WSW,10.4,-,N/A,Thunderstorm,Thunderstorm,250,2013-07-30 08:55:00
4:15 AM,74.3,68.9,83,30.03,10.0,WSW,4.6,-,N/A,Rain,Light Rain,240,2013-07-30 09:15:00
4:35 AM,73.0,69.1,87,30.02,10.0,SSW,6.9,-,0.01,Rain,Light Rain,210,2013-07-30 09:35:00
4:55 AM,72.5,69.3,90,30.01,10.0,SSW,5.8,-,0.01,Rain,Light Rain,200,2013-07-30 09:55:00
5:15 AM,73.4,69.8,88,30.02,10.0,WNW,3.5,-,0.01,Rain,Light Rain,290,2013-07-30 10:15:00
5:35 AM,72.7,69.3,89,30.04,10.0,SW,15.0,-,0.01,Rain,Light Rain,230,2013-07-30 10:35:00
5:55 AM,72.9,69.4,89,30.03,10.0,SW,11.5,-,0.01,,Drizzle,230,2013-07-30 10:55:00
6:15 AM,72.7,68.4,86,30.02,10.0,Calm,Calm,-,N/A,,Light Drizzle,0,2013-07-30 11:15:00
6:35 AM,73.6,68.4,84,30.00,10.0,ENE,10.4,-,N/A,Rain,Rain,60,2013-07-30 11:35:00
6:55 AM,72.5,69.1,89,30.02,10.0,North,6.9,-,N/A,Rain,Light Rain,360,2013-07-30 11:55:00
7:15 AM,72.5,68.9,88,30.05,10.0,Calm,Calm,-,N/A,,Scattered Clouds,0,2013-07-30 12:15:00
7:35 AM,73.0,68.0,84,30.06,10.0,Calm,Calm,-,N/A,,Clear,0,2013-07-30 12:35:00
7:55 AM,73.2,69.3,87,30.08,10.0,Calm,Calm,-,N/A,,Clear,0,2013-07-30 12:55:00
8:15 AM,73.8,70.0,88,30.09,10.0,Calm,Calm,-,N/A,,Clear,0,2013-07-30 13:15:00
8:35 AM,75.2,71.8,89,30.09,10.0,NNE,3.5,-,N/A,,Clear,30,2013-07-30 13:35:00
8:55 AM,75.2,71.8,89,30.10,10.0,North,6.9,-,N/A,,Scattered Clouds,350,2013-07-30 13:55:00
9:15 AM,76.1,71.2,85,30.10,10.0,NNE,8.1,-,N/A,,Scattered Clouds,20,2013-07-30 14:15:00
9:35 AM,75.9,71.6,86,30.11,10.0,North,8.1,-,N/A,,Mostly Cloudy,360,2013-07-30 14:35:00
9:55 AM,75.6,70.9,85,30.11,10.0,North,10.4,-,N/A,,Mostly Cloudy,350,2013-07-30 14:55:00
10:15 AM,77.2,71.6,83,30.11,10.0,North,9.2,-,N/A,,Mostly Cloudy,360,2013-07-30 15:15:00
10:35 AM,76.5,71.4,84,30.12,10.0,North,9.2,-,N/A,,Mostly Cloudy,10,2013-07-30 15:35:00
10:55 AM,77.5,71.4,81,30.12,10.0,NNE,8.1,-,N/A,,Scattered Clouds,20,2013-07-30 15:55:00
11:15 AM,77.5,70.5,79,30.12,10.0,NNW,6.9,-,N/A,,Overcast,340,2013-07-30 16:15:00
11:55 AM,79.0,71.6,78,30.12,10.0,NNE,12.7,-,N/A,,Mostly Cloudy,20,2013-07-30 16:55:00
12:15 PM,80.6,72.5,76,30.12,10.0,North,10.4,-,N/A,,Overcast,10,2013-07-30 17:15:00
12:35 PM,79.0,71.4,78,30.12,10.0,North,10.4,-,N/A,,Overcast,360,2013-07-30 17:35:00
12:55 PM,80.1,71.8,76,30.11,10.0,NNE,10.4,-,N/A,,Mostly Cloudy,20,2013-07-30 17:55:00
1:15 PM,81.0,72.1,74,30.11,10.0,NNE,10.4,-,N/A,,Scattered Clouds,30,2013-07-30 18:15:00
1:35 PM,81.0,71.4,73,30.11,10.0,NE,9.2,-,N/A,,Mostly Cloudy,40,2013-07-30 18:35:00
1:55 PM,82.0,71.6,71,30.10,10.0,NNE,9.2,-,N/A,,Mostly Cloudy,20,2013-07-30 18:55:00
2:15 PM,82.9,71.1,67,30.10,10.0,ENE,8.1,-,N/A,,Mostly Cloudy,70,2013-07-30 19:15:00
2:35 PM,82.9,70.5,66,30.10,10.0,East,3.5,-,N/A,,Mostly Cloudy,100,2013-07-30 19:35:00
2:55 PM,83.1,70.2,65,30.10,10.0,ENE,5.8,-,N/A,,Scattered Clouds,60,2013-07-30 19:55:00
3:15 PM,83.3,70.0,64,30.10,10.0,ENE,3.5,-,N/A,,Mostly Cloudy,60,2013-07-30 20:15:00
3:35 PM,84.4,70.0,62,30.10,10.0,East,4.6,-,N/A,,Scattered Clouds,80,2013-07-30 20:35:00
3:55 PM,84.9,69.6,60,30.09,10.0,ESE,3.5,-,N/A,,Scattered Clouds,110,2013-07-30 20:55:00
4:15 PM,85.3,69.6,59,30.09,10.0,ENE,6.9,-,N/A,,Mostly Cloudy,60,2013-07-30 21:15:00
4:35 PM,85.3,69.8,60,30.09,10.0,NE,4.6,-,N/A,,Scattered Clouds,40,2013-07-30 21:35:00
4:55 PM,85.6,69.6,59,30.09,10.0,North,5.8,-,N/A,,Scattered Clouds,10,2013-07-30 21:55:00
5:15 PM,85.6,70.0,59,30.09,10.0,NE,4.6,-,N/A,,Clear,40,2013-07-30 22:15:00
5:35 PM,86.0,70.0,59,30.09,10.0,East,8.1,-,N/A,,Clear,90,2013-07-30 22:35:00
5:55 PM,85.6,69.6,59,30.08,10.0,East,8.1,-,N/A,,Clear,90,2013-07-30 22:55:00
6:15 PM,85.5,69.3,58,30.08,10.0,NE,6.9,-,N/A,,Clear,50,2013-07-30 23:15:00
6:35 PM,85.1,68.7,58,30.08,10.0,East,4.6,-,N/A,,Clear,90,2013-07-30 23:35:00
6:55 PM,85.3,68.9,58,30.08,10.0,East,4.6,-,N/A,,Clear,90,2013-07-30 23:55:00
7:15 PM,85.3,69.4,59,30.07,10.0,East,8.1,-,N/A,,Clear,80,2013-07-31 00:15:00
7:35 PM,84.6,69.3,60,30.07,10.0,East,5.8,-,N/A,,Clear,90,2013-07-31 00:35:00
7:55 PM,84.2,69.3,61,30.07,10.0,East,8.1,-,N/A,,Clear,100,2013-07-31 00:55:00
8:15 PM,82.8,70.7,67,30.08,10.0,ESE,5.8,-,N/A,,Clear,110,2013-07-31 01:15:00
8:35 PM,81.0,70.9,71,30.07,10.0,ESE,4.6,-,N/A,,Clear,110,2013-07-31 01:35:00
8:55 PM,79.7,70.9,74,30.07,10.0,ESE,4.6,-,N/A,,Clear,120,2013-07-31 01:55:00
9:15 PM,78.4,70.7,77,30.08,10.0,ESE,4.6,-,N/A,,Clear,110,2013-07-31 02:15:00
9:35 PM,77.5,70.9,80,30.09,10.0,ESE,5.8,-,N/A,,Clear,110,2013-07-31 02:35:00
9:55 PM,77.0,70.9,81,30.09,10.0,ESE,5.8,-,N/A,,Clear,110,2013-07-31 02:55:00
10:15 PM,76.3,71.2,84,30.11,10.0,East,5.8,-,N/A,,Clear,100,2013-07-31 03:15:00
10:35 PM,75.9,71.2,85,30.12,10.0,East,5.8,-,N/A,,Clear,100,2013-07-31 03:35:00
10:55 PM,75.2,71.1,87,30.12,10.0,ESE,6.9,-,N/A,,Clear,110,2013-07-31 03:55:00
11:15 PM,75.2,71.8,89,30.13,10.0,ESE,4.6,-,N/A,,Clear,110,2013-07-31 04:15:00
11:35 PM,75.2,71.6,89,30.13,10.0,ESE,6.9,-,N/A,,Clear,120,2013-07-31 04:35:00
11:55 PM,74.3,71.1,90,30.13,10.0,ESE,4.6,-,N/A,,Clear,120,2013-07-31 04:55:00